Stations météo

Publicité
Tarbes/Ossun, France (7621): Température de l'air & dewpoint: 20.03.2017 09:00:00 - 26.03.2017 09:00:00 (CEST)Tarbes/Ossun, France (7621): Température de l'air 5cm: 20.03.2017 09:00:00 - 26.03.2017 09:00:00 (CEST)Tarbes/Ossun, France (7621): Température de l'air -20cm & Température de l'air -100cm: 20.03.2017 09:00:00 - 26.03.2017 09:00:00 (CEST)Tarbes/Ossun, France (7621): Vitesse du vent & gusts: 20.03.2017 09:00:00 - 26.03.2017 09:00:00 (CEST)Tarbes/Ossun, France (7621): Direction du vent: 20.03.2017 09:00:00 - 26.03.2017 09:00:00 (CEST)Tarbes/Ossun, France (7621): reduced air pressure: 20.03.2017 09:00:00 - 26.03.2017 09:00:00 (CEST)Tarbes/Ossun, France (7621): visibility: 20.03.2017 09:00:00 - 26.03.2017 09:00:00 (CEST)Tarbes/Ossun, France (7621): Ensoleillement: 20.03.2017 09:00:00 - 26.03.2017 09:00:00 (CEST)Tarbes/Ossun, France (7621): Quantités de précipitations: 20.03.2017 09:00:00 - 26.03.2017 09:00:00 (CEST)
Date & Time tt [°C] td [°C] tt 5cm [°C] tt -20cm [°C] tt -100cm [°C] ff [km/h] ff [knt] fx [km/h] fx [knt] dd ppp [hPa] vv [km] sd [min] rr [mm]
26.03.2017 09:00:00 4,8 2,0 1,5 9,2 10,3 6 3 19 11 SSE 1016,5 28 12 0,0
26.03.2017 08:00:00 4,1 0,6 -0,2 9,3 10,3 11 6 17 9 SE 1015,9 60 0 0,0
26.03.2017 07:00:00 1,6 -0,2 -1,3 9,4 10,3 9 5 18 10 S 1015,8 60 0 0,0
26.03.2017 06:00:00 1,6 0,4 -0,4 9,5 10,3 5 3 12 7 SSE 1015,7 60 0 0,0
26.03.2017 05:00:00 1,7 0,4 -1,3 9,7 10,3 6 3 19 11 S 1015,5 60 0 0,0
26.03.2017 04:00:00 2,5 0,9 -0,7 9,8 10,3 6 3 16 9 SE 1015,8 60 0 0,0
26.03.2017 03:00:00 1,9 1,0 -0,3 9,9 10,3 5 3 18 10 SSW 1016,1 59 0 0,0
26.03.2017 02:00:00 1,8 0,8 -1,3 10,0 10,3 6 4 15 8 S 1016,3 29 0 0,0
26.03.2017 01:00:00 2,7 1,8 - - - 4 2 16 9 SSW 1016,3 40 - 0,0
26.03.2017 00:00:00 3,2 1,9 -1,1 10,3 10,3 4 2 11 6 WNW 1016,1 16 0 0,0
25.03.2017 23:00:00 3,9 1,9 -0,1 10,3 10,3 7 4 19 11 SW 1015,8 35 0 0,0
25.03.2017 22:00:00 6,3 4,6 1,1 10,3 10,3 9 5 16 8 SE 1014,3 39 0 0,0
25.03.2017 21:00:00 6,5 3,8 3,1 10,3 10,4 10 5 14 7 SW 1013,4 53 0 0,0
25.03.2017 20:00:00 8,8 5,0 7,5 10,1 10,3 6 4 21 12 N 1012,0 60 43 0,0
25.03.2017 19:00:00 10,3 4,6 13,9 9,9 10,3 14 8 31 17 NNE 1011,1 55 45 0,0
25.03.2017 18:00:00 11,3 4,3 20,2 9,7 10,4 13 7 26 14 NE 1010,3 52 51 0,0
25.03.2017 17:00:00 10,6 5,1 15,0 9,5 10,4 6 4 16 9 NNE 1010,1 60 35 0,0
25.03.2017 16:00:00 9,1 4,1 13,4 9,5 10,4 6 3 18 10 N 1010,0 60 32 0,0
25.03.2017 15:00:00 8,0 5,6 9,0 9,4 10,4 13 7 23 13 WNW 1009,7 49 3 0,2
25.03.2017 14:00:00 6,9 4,4 7,6 9,4 10,4 12 7 19 10 WSW 1010,0 59 0 0,0
25.03.2017 13:00:00 6,4 4,2 7,9 9,4 10,4 11 6 18 10 WSW 1010,0 20 0 0,0
25.03.2017 12:00:00 6,1 4,3 7,7 9,4 10,4 11 6 18 10 WSW 1009,8 20 0 0,0
25.03.2017 11:00:00 5,6 4,1 5,2 9,4 10,4 10 5 16 9 WSW 1010,2 8 0 0,2
25.03.2017 10:00:00 4,3 3,1 4,1 9,5 10,4 6 4 14 8 SW 1011,1 19 0 0,4
25.03.2017 09:00:00 4,1 3,1 3,9 9,6 10,4 11 6 16 9 SW 1011,2 19 0 0,8
25.03.2017 08:00:00 4,2 3,2 4,0 9,6 10,4 7 4 10 6 SW 1011,6 9 0 1,0
25.03.2017 07:00:00 4,3 3,3 4,0 9,7 10,4 6 3 13 7 WSW 1011,8 17 0 0,6
25.03.2017 06:00:00 4,4 3,5 4,2 9,8 10,4 5 3 9 5 WSW 1012,5 12 0 0,6
25.03.2017 05:00:00 4,5 3,5 4,0 9,8 10,4 3 2 9 5 W 1013,4 7 0 0,4
25.03.2017 04:00:00 4,4 3,1 4,1 9,9 10,4 5 3 8 4 SSW 1014,4 17 0 0,0
25.03.2017 03:00:00 4,5 2,8 4,1 10,0 10,4 4 2 7 4 S 1015,4 60 0 0,0
25.03.2017 02:00:00 4,5 3,2 3,9 10,1 10,4 4 2 12 7 S 1015,9 48 0 0,0
25.03.2017 01:00:00 4,7 3,2 4,1 10,1 10,4 4 2 12 7 S 1016,8 28 0 0,4
25.03.2017 00:00:00 4,9 3,1 4,4 10,2 10,4 9 5 14 8 SSE 1017,1 18 0 1,2
24.03.2017 23:00:00 5,2 3,5 4,6 10,2 10,4 9 5 16 9 SE 1017,9 40 0 0,4
24.03.2017 22:00:00 5,6 3,1 4,7 10,2 10,4 9 5 26 14 SSE 1018,5 35 0 0,6
24.03.2017 21:00:00 7,0 2,1 5,4 10,2 10,4 8 4 25 13 ENE 1018,5 11 0 0,4
24.03.2017 20:00:00 9,2 4,4 - - - 5 3 16 9 ENE 1017,1 45 - -
24.03.2017 19:00:00 9,7 4,7 9,6 10,1 10,4 11 6 23 12 NNE 1016,4 56 0 0,0
24.03.2017 18:00:00 10,3 4,6 12,4 9,9 10,4 18 10 29 16 NNE 1015,9 58 0 0,0
24.03.2017 17:00:00 10,8 5,3 12,8 9,8 10,4 16 9 27 15 NNE 1015,8 59 0 0,0
24.03.2017 16:00:00 11,6 3,4 15,6 9,6 10,4 12 7 21 11 N 1015,7 56 0 0,0
24.03.2017 15:00:00 11,9 3,4 19,7 9,4 10,4 6 4 16 9 N 1015,4 53 31 0,0
24.03.2017 14:00:00 11,6 2,6 17,2 9,3 10,4 7 4 23 13 W 1016,0 59 38 0,0
24.03.2017 13:00:00 10,0 1,4 16,4 9,2 10,4 9 5 29 16 NNW 1016,4 54 20 0,0
24.03.2017 12:00:00 9,3 2,2 11,0 9,3 10,4 11 6 19 10 NW 1016,5 60 40 0,0
24.03.2017 11:00:00 8,1 1,5 8,3 9,4 10,4 10 5 16 9 W 1016,1 60 32 0,0
24.03.2017 10:00:00 4,9 1,6 0,1 9,5 10,4 7 4 17 9 S 1015,8 51 15 0,0
24.03.2017 09:00:00 1,0 -0,5 -2,4 9,7 10,4 11 6 18 10 S 1016,0 60 4 0,0
24.03.2017 08:00:00 -0,3 -1,1 -3,4 9,9 10,4 11 6 14 8 S 1015,8 60 0 0,0
24.03.2017 07:00:00 -0,2 -0,8 -3,7 10,0 10,4 9 5 12 6 S 1015,5 51 0 0,0
24.03.2017 06:00:00 0,1 -0,5 -3,6 10,2 10,4 6 4 10 5 S 1015,0 38 0 0,0
24.03.2017 05:00:00 -0,2 -0,8 -3,1 10,3 10,4 8 5 10 5 SSW 1015,0 13 0 0,0
24.03.2017 04:00:00 1,3 0,6 -2,8 10,5 10,4 6 3 9 5 SSE 1015,0 20 0 0,0
24.03.2017 03:00:00 1,4 0,7 -1,9 10,7 10,4 4 2 8 4 SSW 1015,1 17 0 0,0
24.03.2017 02:00:00 2,2 1,6 -1,0 10,8 10,4 5 3 13 7 SSE 1014,7 18 0 0,0
24.03.2017 01:00:00 2,7 1,8 0,1 11,0 10,4 6 4 15 8 SSW 1014,6 20 0 0,0
24.03.2017 00:00:00 3,2 2,2 0,9 11,1 10,4 7 4 12 6 SW 1014,2 20 0 0,0
23.03.2017 23:00:00 4,8 2,5 0,5 11,2 10,4 6 3 11 6 NNW 1013,1 57 0 0,0
23.03.2017 22:00:00 7,4 1,7 2,1 11,3 10,4 7 4 21 11 NE 1012,2 60 0 0,0
23.03.2017 21:00:00 7,2 1,9 3,1 11,3 10,4 10 6 23 12 NE 1011,5 60 0 1,0
23.03.2017 20:00:00 8,3 1,9 2,6 11,2 10,4 5 3 23 12 NNW 1010,4 31 0 1,2
23.03.2017 19:00:00 10,0 0,3 10,0 10,9 10,4 13 7 21 11 NE 1009,4 60 1 0,0
23.03.2017 18:00:00 11,1 -0,4 15,4 10,7 10,4 11 6 23 12 NNE 1008,7 58 50 0,0
23.03.2017 17:00:00 12,0 0,7 20,3 10,4 10,4 9 5 22 12 N 1008,4 20 55 0,0
23.03.2017 16:00:00 10,5 0,8 15,5 10,2 10,4 12 6 32 17 NNE 1008,8 58 48 0,0
23.03.2017 15:00:00 10,6 1,7 16,4 9,9 10,4 10 6 23 12 NNE 1009,0 60 41 0,0
23.03.2017 14:00:00 10,8 1,1 19,5 9,8 10,4 5 3 16 8 E 1009,2 60 56 0,0
23.03.2017 13:00:00 9,6 0,7 19,9 9,8 10,4 5 3 16 9 SSW 1009,6 60 54 0,0
23.03.2017 12:00:00 8,6 0,6 11,5 9,8 10,4 4 2 13 7 SSW 1010,0 60 40 0,0
23.03.2017 11:00:00 6,7 0,1 6,6 9,8 10,4 5 3 16 9 S 1010,2 60 10 0,0
23.03.2017 10:00:00 5,9 1,6 6,1 9,9 10,4 9 5 17 9 SW 1009,9 60 47 0,0
23.03.2017 09:00:00 4,6 2,5 2,9 10,0 10,4 11 6 24 13 S 1009,9 59 31 0,0
23.03.2017 08:00:00 3,8 2,0 3,3 10,1 10,4 13 7 26 14 W 1009,8 54 0 0,0
23.03.2017 07:00:00 4,0 3,0 3,8 10,3 10,4 18 10 31 17 WNW 1009,0 30 0 0,6
23.03.2017 06:00:00 4,4 3,2 4,2 10,4 10,4 14 8 22 12 WNW 1008,7 16 0 0,4
23.03.2017 05:00:00 4,5 3,2 4,1 10,5 10,4 8 4 21 11 WSW 1009,0 24 0 0,6
23.03.2017 04:00:00 4,6 3,3 3,7 10,6 10,4 11 6 16 9 WSW 1009,0 60 0 0,0
23.03.2017 03:00:00 3,9 2,7 3,4 10,7 10,4 9 5 12 7 SSW 1009,4 33 0 0,4
23.03.2017 02:00:00 3,6 2,1 - - - 4 2 21 11 ENE 1009,5 45 - -
23.03.2017 01:00:00 3,1 1,9 2,5 11,0 10,4 13 7 27 14 SSE 1009,8 60 0 0,8
23.03.2017 00:00:00 2,8 1,6 2,5 11,1 10,4 14 7 28 15 SSW 1010,7 8 0 3,0
22.03.2017 23:00:00 4,4 2,6 3,9 11,2 10,4 20 11 33 18 WNW 1010,9 8 0 0,6
22.03.2017 22:00:00 5,4 4,4 4,5 11,2 10,4 14 7 43 23 WNW 1010,2 33 0 0,0
22.03.2017 21:00:00 5,3 3,6 4,5 11,2 10,4 29 16 57 31 W 1009,4 20 0 0,2
22.03.2017 20:00:00 11,6 3,6 8,9 11,1 10,4 8 5 23 12 NNE 1006,3 60 3 0,0
22.03.2017 19:00:00 13,0 3,6 14,3 10,9 10,4 12 6 27 15 NE 1006,1 60 31 0,0
22.03.2017 18:00:00 14,3 3,1 17,8 10,7 10,4 14 8 24 13 E 1006,5 20 53 0,0
22.03.2017 17:00:00 13,1 3,5 - - - 9 5 18 10 N 1007,6 23 - -
22.03.2017 16:00:00 13,2 3,3 16,5 10,3 10,4 6 3 19 10 NE 1008,3 60 11 0,0
22.03.2017 15:00:00 13,6 3,4 18,9 10,2 10,4 11 6 25 14 N 1009,0 57 18 0,0
22.03.2017 14:00:00 13,8 4,4 17,9 10,0 10,4 11 6 23 12 NNE 1009,6 60 50 0,0
22.03.2017 13:00:00 13,6 5,5 17,7 9,9 10,4 14 7 32 17 NNW 1009,8 48 42 0,0
22.03.2017 12:00:00 11,7 6,8 13,9 9,9 10,4 9 5 14 8 N 1010,1 20 30 0,0
22.03.2017 11:00:00 10,8 5,1 10,2 10,0 10,4 8 4 26 14 E 1010,4 58 55 0,0
22.03.2017 10:00:00 6,9 5,2 5,7 10,1 10,4 2 1 8 4 S 1011,3 60 26 0,0
22.03.2017 09:00:00 4,6 4,0 0,8 10,2 10,4 2 1 8 5 SSW 1011,7 57 40 0,0
22.03.2017 08:00:00 3,6 2,4 - - - 4 2 22 12 S 1012,4 55 - -
22.03.2017 07:00:00 4,1 3,8 0,1 10,5 10,4 12 6 23 12 SSE 1013,4 60 0 0,0
22.03.2017 06:00:00 3,2 2,9 -0,4 10,6 10,4 7 4 9 5 SSE 1014,6 0,3 0 0,0
22.03.2017 05:00:00 3,7 3,3 0,0 10,7 10,4 0 0 8 4 N 1015,4 0,4 0 0,0
22.03.2017 04:00:00 4,6 4,2 0,7 10,8 10,3 5 3 11 6 S 1016,0 1,5 0 0,0
22.03.2017 03:00:00 5,1 4,7 3,3 10,9 10,3 9 5 11 6 S 1016,8 49 0 0,0
22.03.2017 02:00:00 5,1 4,4 1,1 11,0 10,4 2 1 12 7 NW 1017,6 14 0 0,0
22.03.2017 01:00:00 5,8 5,1 4,5 11,1 10,4 12 6 17 9 SSE 1017,8 60 0 0,0
22.03.2017 00:00:00 6,3 5,7 5,3 11,1 10,4 5 3 8 4 SSW 1018,7 60 0 0,0
21.03.2017 23:00:00 6,2 5,5 5,8 11,2 10,3 6 4 10 6 SSW 1019,0 49 0 0,0
21.03.2017 22:00:00 6,7 5,8 6,4 11,3 10,3 9 5 21 11 NW 1019,4 3,8 0 0,2
21.03.2017 21:00:00 7,1 5,9 6,8 11,3 10,3 6 3 11 6 SSE 1018,8 6 0 0,0
21.03.2017 20:00:00 7,0 5,8 6,8 11,4 10,4 10 5 26 14 NW 1019,2 41 0 0,4
21.03.2017 19:00:00 7,9 6,8 7,9 11,3 10,3 16 9 33 18 NW 1018,3 8 0 0,2
21.03.2017 18:00:00 8,5 7,3 8,6 11,3 10,3 19 11 45 24 W 1017,8 9 0 0,2
21.03.2017 17:00:00 8,7 7,3 8,9 11,2 10,3 33 18 56 30 WNW 1017,4 9 0 0,2
21.03.2017 16:00:00 12,0 6,9 13,6 11,1 10,4 19 10 40 22 W 1016,0 56 0 0,0
21.03.2017 15:00:00 13,4 6,5 17,5 11,0 10,3 15 8 30 16 W 1015,8 54 2 0,0
21.03.2017 14:00:00 12,6 6,0 15,7 10,9 10,3 13 7 29 16 W 1016,3 54 1 0,0
21.03.2017 13:00:00 11,9 4,6 15,2 10,9 10,3 15 8 31 17 W 1016,8 54 7 0,0
21.03.2017 12:00:00 11,0 5,3 10,8 10,9 10,3 18 10 27 15 WSW 1017,1 53 1 0,0
21.03.2017 11:00:00 9,5 5,9 9,5 10,9 10,3 9 5 16 9 WSW 1017,1 58 0 0,0
21.03.2017 10:00:00 8,7 5,8 8,1 11,0 10,3 6 4 13 7 SW 1016,8 37 0 0,0
21.03.2017 09:00:00 7,9 6,2 7,1 11,0 10,3 5 3 11 6 S 1017,1 18 0 0,0
21.03.2017 08:00:00 7,6 6,2 7,1 11,1 10,3 8 4 12 6 S 1017,0 16 0 0,0
21.03.2017 07:00:00 7,6 6,5 7,2 11,1 10,3 8 4 10 5 S 1017,1 14 0 0,0
21.03.2017 06:00:00 7,6 6,7 7,2 11,2 10,3 5 3 9 5 SSE 1017,3 14 0 0,0
21.03.2017 05:00:00 7,6 6,4 7,1 11,3 10,3 6 4 11 6 S 1017,6 20 0 0,0
21.03.2017 04:00:00 7,5 6,4 7,1 11,4 10,3 7 4 11 6 S 1018,6 17 0 0,0
21.03.2017 03:00:00 7,7 6,5 7,4 11,4 10,3 7 4 16 9 W 1018,9 18 0 0,0
21.03.2017 02:00:00 8,0 6,8 7,6 11,5 10,3 6 4 16 9 W 1019,1 13 0 0,0
21.03.2017 01:00:00 8,0 6,9 7,8 11,6 10,3 7 4 22 12 WNW 1019,3 11 0 0,0
21.03.2017 00:00:00 8,6 7,4 8,4 11,6 10,3 8 5 16 9 WNW 1019,3 9 0 0,0
20.03.2017 23:00:00 8,8 7,6 8,5 11,7 10,3 8 5 19 11 WNW 1019,1 11 0 0,0
20.03.2017 22:00:00 9,0 7,6 8,7 11,7 10,3 14 8 23 13 WNW 1019,1 10 0 0,0
20.03.2017 21:00:00 9,8 7,4 9,4 11,7 10,3 10 6 22 12 WNW 1018,5 15 0 0,0
20.03.2017 20:00:00 10,5 7,4 10,2 11,7 10,3 14 8 22 12 WNW 1018,1 20 0 0,0
20.03.2017 19:00:00 11,3 7,6 11,3 11,7 10,3 13 7 23 12 NW 1017,3 29 0 0,0
20.03.2017 18:00:00 11,9 7,8 12,4 11,6 10,2 16 9 23 12 NW 1016,8 37 4 0,0
20.03.2017 17:00:00 12,3 7,8 14,1 11,5 10,3 12 6 19 11 W 1016,8 32 0 0,0
20.03.2017 16:00:00 12,7 8,4 16,0 11,4 10,2 10 5 16 9 W 1016,6 20 0 0,0
20.03.2017 15:00:00 12,3 7,6 16,5 11,3 10,3 5 3 15 8 NW 1016,8 54 0 0,0
20.03.2017 14:00:00 11,9 8,4 16,0 11,2 10,2 6 3 14 8 NW 1016,8 51 0 0,0
20.03.2017 13:00:00 11,3 7,2 15,6 11,2 10,3 5 3 15 8 NNW 1017,0 19 0 0,0
20.03.2017 12:00:00 10,5 7,6 11,8 11,2 10,3 6 4 11 6 E 1017,3 20 3 0,0
20.03.2017 11:00:00 8,9 7,0 9,7 11,2 10,2 5 3 9 5 NNE 1017,9 43 0 0,0
20.03.2017 10:00:00 8,1 7,2 8,3 11,3 10,2 5 3 9 5 NE 1018,1 25 0 0,0
20.03.2017 09:00:00 - - - - - - - - - - - - - -

tt = Température de l'air
td = dewpoint
tt 5cm = Température de l'air 5cm
tt -20cm = Température de l'air -20cm
tt -100cm = Température de l'air -100cm
ff = Vitesse du vent
fx = gusts
dd = Direction du vent
ppp = reduced air pressure
vv = visibility
sd = Ensoleillement
rr = Quantités de précipitations

stations d'obs. à proximité